Location: Fort Worth, Tx
(32.7431°N, 97.3695°W)
Time: 12:54:07
(UTC-04:00)

Tiros 1 - Pass Details

Date: 01 March 2024
Orbit: 625 x 657 km, 48.4° (Epoch: 24 April)

Event Time Altitude Azimuth Distance (km) Brightness Sun altitude
Rises 20:27:28 0° 255° (WSW) 2,955 12.2 -13.4°
Reaches altitude 10° 20:29:58 10° 265° (W) 2,051 11.2 -14.0°
Maximum altitude 20:34:16 34° 330° (NNW) 1,083 8.6 -14.9°
Drops below altitude 10° 20:38:37 10° 35° (NE) 2,068 9.4 -15.8°
Enters shadow 20:38:45 - 36° (NE) 2,112 9.5 -15.8°
